Regional Weather Roundup
Issued by NWS

Home | Current Version | Previous Version | Text Only | Print | Product List | Glossary Off
Versions: 1 2 3 4 5 6 7 8 9 10 11 12 13 14 15 16 17 18 19 20 21 22 23 24 25 26 27 28 29 30 31 32 33 34 35 36 37 38 39 40 41 42 43 44 45 46 47 48 49 50

000
ASUS43 KBIS 062210
RWRND

NORTH DAKOTA REGIONAL WEATHER ROUNDUP
NATIONAL WEATHER SERVICE BISMARCK ND
500 PM CDT MON JUL 06 2015

NOTE: "FAIR" INDICATES FEW OR NO CLOUDS BELOW 12,000 FEET WITH NO
SIGNIFICANT WEATHER AND/OR OBSTRUCTIONS TO VISIBILITY.


NDZ001>003-009>011-017-062300-
NORTHWEST NORTH DAKOTA

CITY           SKY/WX    TMP DP  RH WIND       PRES   REMARKS
WILLISTON      MOSUNNY   70  46  42 N10       30.18F
MINOT          MOSUNNY   68  46  45 NW10      30.17R
MINOT AFB      SUNNY     69  48  46 N12       30.16S
$$

NDZ018>021-031>035-040>046-062300-
SOUTHWEST NORTH DAKOTA

CITY           SKY/WX    TMP DP  RH WIND       PRES   REMARKS
BISMARCK       CLOUDY    70  53  54 N9        30.16R HAZE
DICKINSON      MOSUNNY   71  51  49 NE16      30.17R
GARRISON         N/A     67  51  56 N9        30.17S
HETTINGER ARPT PTSUNNY   71  50  47 N7        30.19S
$$

NDZ004>008-012>016-024-026-027-054-062300-
NORTHEAST NORTH DAKOTA

CITY           SKY/WX    TMP DP  RH WIND       PRES   REMARKS
GRAND FORKS    PTSUNNY   65  49  56 N16G23    30.10S
GRND FRKS AFB  MOSUNNY   65  48  53 N14G21    30.11S
DEVILS LAKE    MOSUNNY   64  46  52 N14       30.13S
$$

NDZ022-023-025-028>030-036>039-047>053-062300-
SOUTHEAST NORTH DAKOTA

CITY           SKY/WX    TMP DP  RH WIND       PRES   REMARKS
FARGO          PTSUNNY   66  49  54 N17G28    30.10R
JAMESTOWN      MOSUNNY   68  51  54 N14       30.12F
$$




USA.gov is the U.S. government's official web portal to all federal, state and local government web resources and services.